When you browse on this site, cookies collect data to enhance your experience and personalize the content and advertising you see.
Visit our Privacy Policy to learn more. By continuing to use the site, you agree to this use of cookies and data.
  • In United Kingdom
  • List of Countries
  • For 7 days
  • Water Temperature
  • Weather Map
  • Weather Widgets
  • user-avatar
    Login

    Hourly Weather Tarija

    Today, 28 January, Tuesday

    Time Temperature Precipitation Wind Pressure Humidity
    00:00 +16°C° 0.4 mm 1 mps 598 mmHg 95%
    01:00 +16°C° 0.4 mm 1 mps 598 mmHg 95%
    02:00 +15°C° 0 mm 0 mps 597 mmHg 92%
    03:00 +15°C° 0.1 mm 0 mps 597 mmHg 92%
    04:00 +15°C° 0.1 mm 0 mps 597 mmHg 93%
    05:00 +14°C° 0.1 mm 0 mps 597 mmHg 93%
    06:00 +15°C° 0 mm 0 mps 597 mmHg 91%
    07:00 +15°C° 0 mm 0 mps 597 mmHg 89%
    08:00 +16°C° 0 mm 1 mps 597 mmHg 87%
    09:00 +19°C° 0.1 mm 1 mps 598 mmHg 82%
    10:00 +20°C° 0.1 mm 1 mps 598 mmHg 77%
    11:00 +20°C° 0.1 mm 2 mps 598 mmHg 72%
    12:00 +21°C° 0.2 mm 2 mps 597 mmHg 70%
    13:00 +23°C° 0.2 mm 2 mps 597 mmHg 68%
    14:00 +24°C° 0.2 mm 2 mps 596 mmHg 66%
    15:00 +23°C° 0.6 mm 2 mps 595 mmHg 70%
    16:00 +21°C° 0.6 mm 2 mps 595 mmHg 74%
    17:00 +21°C° 0.6 mm 2 mps 594 mmHg 78%
    18:00 +20°C° 0.4 mm 2 mps 594 mmHg 82%
    19:00 +20°C° 0.4 mm 1 mps 594 mmHg 87%
    20:00 +19°C° 0.4 mm 1 mps 594 mmHg 91%
    21:00 +19°C° 0.2 mm 1 mps 594 mmHg 91%
    22:00 +19°C° 0.2 mm 1 mps 595 mmHg 91%
    23:00 +19°C° 0.2 mm 1 mps 595 mmHg 90%

    Tomorrow, 29 January, Wednesday

    Time Temperature Precipitation Wind Pressure Humidity
    00:00 +19°C° 0.5 mm 1 mps 595 mmHg 91%
    01:00 +18°C° 0.5 mm 1 mps 594 mmHg 91%
    02:00 +18°C° 0.5 mm 1 mps 594 mmHg 91%
    03:00 +18°C° 0.2 mm 1 mps 594 mmHg 90%
    04:00 +16°C° 0.2 mm 1 mps 594 mmHg 89%
    05:00 +16°C° 0.2 mm 1 mps 594 mmHg 88%
    06:00 +19°C° 0 mm 1 mps 595 mmHg 82%
    07:00 +20°C° 0 mm 1 mps 595 mmHg 75%
    08:00 +21°C° 0 mm 1 mps 596 mmHg 68%
    09:00 +23°C° 0 mm 1 mps 597 mmHg 61%
    10:00 +25°C° 0 mm 1 mps 597 mmHg 53%
    11:00 +27°C° 0 mm 1 mps 598 mmHg 46%
    12:00 +27°C° 0.1 mm 2 mps 597 mmHg 43%
    13:00 +28°C° 0.1 mm 3 mps 597 mmHg 41%
    14:00 +29°C° 0.1 mm 3 mps 597 mmHg 39%
    15:00 +27°C° 0.8 mm 3 mps 596 mmHg 49%
    16:00 +25°C° 0.8 mm 3 mps 595 mmHg 60%
    17:00 +24°C° 0.8 mm 3 mps 594 mmHg 70%
    18:00 +23°C° 0.4 mm 2 mps 594 mmHg 75%
    19:00 +20°C° 0.4 mm 2 mps 594 mmHg 80%
    20:00 +20°C° 0.4 mm 1 mps 594 mmHg 85%
    21:00 +20°C° 0.2 mm 1 mps 595 mmHg 86%
    22:00 +20°C° 0.2 mm 1 mps 596 mmHg 87%
    23:00 +18°C° 0.2 mm 2 mps 596 mmHg 87%

    Day after tomorrow, 30 January, Thursday

    Time Temperature Precipitation Wind Pressure Humidity
    00:00 +19°C° 0.1 mm 1 mps 596 mmHg 88%
    01:00 +19°C° 0.1 mm 1 mps 596 mmHg 88%
    02:00 +18°C° 0.1 mm 1 mps 596 mmHg 89%
    03:00 +18°C° 0.1 mm 1 mps 596 mmHg 91%
    04:00 +18°C° 0.1 mm 1 mps 596 mmHg 93%
    05:00 +16°C° 0.1 mm 1 mps 596 mmHg 96%
    06:00 +16°C° 0.1 mm 1 mps 597 mmHg 95%
    07:00 +16°C° 0.1 mm 2 mps 597 mmHg 94%
    08:00 +17°C° 0.1 mm 2 mps 598 mmHg 93%
    09:00 +17°C° 0.3 mm 2 mps 598 mmHg 93%
    10:00 +16°C° 0.3 mm 2 mps 598 mmHg 93%
    11:00 +16°C° 0.3 mm 2 mps 598 mmHg 93%
    12:00 +17°C° 0.2 mm 2 mps 597 mmHg 92%
    13:00 +17°C° 0.2 mm 2 mps 597 mmHg 91%
    14:00 +17°C° 0.2 mm 2 mps 596 mmHg 90%
    15:00 +17°C° 0.1 mm 2 mps 596 mmHg 88%
    16:00 +17°C° 0.1 mm 2 mps 596 mmHg 86%
    17:00 +18°C° 0.1 mm 2 mps 596 mmHg 84%
    18:00 +18°C° 0.1 mm 1 mps 596 mmHg 86%
    19:00 +18°C° 0.1 mm 1 mps 597 mmHg 87%
    20:00 +16°C° 0.1 mm 1 mps 597 mmHg 89%
    21:00 +16°C° 0 mm 1 mps 597 mmHg 89%
    22:00 +16°C° 0 mm 1 mps 598 mmHg 89%
    23:00 +16°C° 0 mm 1 mps 598 mmHg 89%

    31 January, Friday

    Time Temperature Precipitation Wind Pressure Humidity
    00:00 +16°C° 0 mm 1 mps 597 mmHg 89%
    01:00 +15°C° 0 mm 1 mps 597 mmHg 90%
    02:00 +15°C° 0 mm 1 mps 596 mmHg 91%
    03:00 +15°C° 0 mm 1 mps 596 mmHg 91%
    04:00 +13°C° 0 mm 0 mps 596 mmHg 91%
    05:00 +13°C° 0 mm 0 mps 596 mmHg 91%
    06:00 +14°C° 0 mm 0 mps 597 mmHg 87%
    07:00 +15°C° 0 mm 0 mps 598 mmHg 83%
    08:00 +16°C° 0 mm 0 mps 598 mmHg 79%
    09:00 +20°C° 0 mm 1 mps 599 mmHg 76%
    10:00 +21°C° 0 mm 1 mps 599 mmHg 72%
    11:00 +21°C° 0 mm 2 mps 599 mmHg 69%
    12:00 +21°C° 0.1 mm 2 mps 598 mmHg 69%
    13:00 +21°C° 0.1 mm 2 mps 598 mmHg 70%
    14:00 +22°C° 0.1 mm 3 mps 597 mmHg 70%
    15:00 +21°C° 0.2 mm 2 mps 597 mmHg 72%
    16:00 +21°C° 0.2 mm 2 mps 596 mmHg 75%
    17:00 +21°C° 0.2 mm 2 mps 596 mmHg 77%
    18:00 +20°C° 0.2 mm 2 mps 596 mmHg 81%
    19:00 +20°C° 0.2 mm 1 mps 596 mmHg 86%
    20:00 +19°C° 0.2 mm 1 mps 597 mmHg 91%
    21:00 +19°C° 0.1 mm 1 mps 597 mmHg 92%
    22:00 +19°C° 0.1 mm 1 mps 597 mmHg 92%
    23:00 +19°C° 0.1 mm 1 mps 598 mmHg 93%

    1 February, Saturday

    Time Temperature Precipitation Wind Pressure Humidity
    00:00 +19°C° 0.1 mm 1 mps 597 mmHg 93%
    01:00 +16°C° 0.1 mm 0 mps 597 mmHg 93%
    02:00 +16°C° 0.1 mm 0 mps 597 mmHg 94%
    03:00 +16°C° 0 mm 0 mps 596 mmHg 93%
    04:00 +16°C° 0 mm 0 mps 596 mmHg 92%
    05:00 +16°C° 0 mm 0 mps 596 mmHg 92%
    06:00 +16°C° 0 mm 0 mps 597 mmHg 89%
    07:00 +17°C° 0 mm 0 mps 597 mmHg 87%
    08:00 +18°C° 0 mm 0 mps 598 mmHg 84%
    09:00 +21°C° 0 mm 1 mps 598 mmHg 79%
    10:00 +23°C° 0 mm 1 mps 598 mmHg 73%
    11:00 +24°C° 0 mm 2 mps 599 mmHg 67%
    12:00 +25°C° 0.3 mm 2 mps 598 mmHg 67%
    13:00 +25°C° 0.3 mm 2 mps 597 mmHg 66%
    14:00 +25°C° 0.3 mm 3 mps 597 mmHg 66%
    15:00 +25°C° 0.5 mm 3 mps 596 mmHg 69%
    16:00 +24°C° 0.5 mm 3 mps 596 mmHg 72%
    17:00 +24°C° 0.5 mm 3 mps 595 mmHg 75%
    18:00 +23°C° 0.4 mm 2 mps 595 mmHg 81%
    19:00 +21°C° 0.4 mm 2 mps 595 mmHg 87%
    20:00 +21°C° 0.4 mm 1 mps 595 mmHg 92%
    21:00 +21°C° 0.2 mm 1 mps 596 mmHg 92%
    22:00 +20°C° 0.2 mm 1 mps 596 mmHg 92%
    23:00 +20°C° 0.2 mm 1 mps 596 mmHg 92%

    2 February, Sunday

    Time Temperature Precipitation Wind Pressure Humidity
    00:00 +20°C° 0.1 mm 1 mps 596 mmHg 92%
    01:00 +18°C° 0.1 mm 0 mps 596 mmHg 92%
    02:00 +18°C° 0.1 mm 0 mps 596 mmHg 92%
    03:00 +18°C° 0 mm 0 mps 596 mmHg 91%
    04:00 +17°C° 0 mm 0 mps 595 mmHg 91%
    05:00 +17°C° 0 mm 0 mps 595 mmHg 91%
    06:00 +18°C° 0 mm 0 mps 596 mmHg 87%
    07:00 +19°C° 0 mm 0 mps 597 mmHg 84%
    08:00 +20°C° 0 mm 0 mps 597 mmHg 81%
    09:00 +23°C° 0.2 mm 1 mps 598 mmHg 75%
    10:00 +24°C° 0.2 mm 1 mps 598 mmHg 70%
    11:00 +26°C° 0.2 mm 2 mps 598 mmHg 64%
    12:00 +26°C° 0.9 mm 2 mps 598 mmHg 65%
    13:00 +26°C° 0.9 mm 2 mps 597 mmHg 67%
    14:00 +26°C° 0.9 mm 3 mps 597 mmHg 68%
    15:00 +25°C° 1.6 mm 2 mps 596 mmHg 71%
    16:00 +25°C° 1.6 mm 2 mps 596 mmHg 74%
    17:00 +24°C° 1.6 mm 2 mps 595 mmHg 76%
    18:00 +23°C° 0.5 mm 2 mps 595 mmHg 80%
    19:00 +22°C° 0.5 mm 1 mps 596 mmHg 84%
    20:00 +21°C° 0.5 mm 1 mps 596 mmHg 88%
    21:00 +21°C° 0.4 mm 1 mps 596 mmHg 88%
    22:00 +21°C° 0.4 mm 1 mps 596 mmHg 89%
    23:00 +19°C° 0.4 mm 0 mps 597 mmHg 89%
    Show more